カタログに戻る

STARLINK-34794

運用中通信SSO
NORAD 65070·PAYLOAD·🇺🇸 United States

打ち上げ Jul 31, 2025 から Vandenberg Space Force Base

Loading…

次のパス (今後24時間)

TLE

最新Source: CelesTrak SupGP

元期: Sep 15, 2026, 03:26 UTC

1 65070C 25165Q   26258.14354167 -.00112200  00000+0 -34784-2 0  2584
2 65070  97.2841 329.4267 0002095  78.5692 282.8875 15.33535866    13

AllMySatでSTARLINK-34794をリアルタイム追跡

Download on the App Store